Location: College Rock
(37.2713°N, 119.1740°W)
Time: 12:59:46
(UTC+00:00)

Cosmos 1689 Rocket - Pass Details

Date: 29 October 2020
Orbit: 360 x 374 km, 97.5° (Epoch: 01 December)

Event Time Altitude Azimuth Distance (km) Brightness Sun altitude
Rises 13:17:29 0° 169° (S) 2,227 6.2 -12.8°
Reaches altitude 10° 13:19:25 10° 170° (S) 1,377 5.1 -12.4°
Maximum altitude 13:22:21 81° 257° (WSW) 382 1.9 -11.8°
Drops below altitude 10° 13:25:17 10° 346° (NNW) 1,378 4.6 -11.2°
Sets 13:27:14 0° 348° (NNW) 2,229 5.7 -10.8°
